FREGAT DEB, 46524

Orbit data source: Space-Track

FREGAT DEB, 46524 is space debris in LEO originally from a launch on Mon, 18 Jul 2011 UTC launched from the Tyuratam Missile And Space Complex (TTMTR). Debris objects in space refer to the collection of defunct objects orbiting the Earth. Examples of debris include non-operational satellites, rocket bodies, and fragments generated from explosions, collisions, or faulty payload assembly.

Loading next visibility...
Identifier
46524, 2011-037MC
Orbit
LEO
Country
Flag of CISCIS
Related business
Manufacturer
Lavochkin
Mission
Spacecraft
Bus & Motor
Unknown
Mass
Unknown
Launch date (UTC)
2011-07-18 (15 years ago)
Launch vehicle
Unknown
Launch site
Tyuratam Missile And Space Complex (TTMTR)
Object type
Payload
Rocket body
Debris
Shape & HBR
Unknown shape, 0.1 m
Radar Cross Section
Small (<0.1 m²)

Expand to show TLE details & history
Last TLE update: 12 hours ago

TLE from 12 hours ago
0 FREGAT DEB
1 46524U 11037MC  26036.79846341  .00002743  00000-0  69045-2 0  9994
2 46524  51.6203 196.7219 1836886 145.4257 228.1056 10.61225288211310
Epoch: 2026-02-05T19:09Z
TLE epoch observation values (Epoch: 2026-02-05T19:09:47.238Z)
Latitude
-0.00005°
Longitude
133.32952°
Altitude
3,579.019 km
Speed
5.875 km/s
True Right ascension
13h 06m 53s
True Declination
0° 00' 00"
Sunlit
Object was in daylight at epoch
Visualization orbit readout
Latitude
Unknown
Longitude
Unknown
Altitude
Unknown
Speed
Unknown
Apparent Right ascension
Unknown
Apparent Declination
Unknown
Sunlit
N/A
Visualization observer readout
Local Sidereal Time
09:07:45
Azimuth
Unknown
Elevation
Unknown
Doppler factor
Unknown
Orbital elements
Apogee altitude
3,976.187 km
Perigee altitude
762.553 km
Semi-major axis
8,747.507 km
Eccentricity
0.18369
Inclination
51.6203°
RAAN
196.7219°
Arg. of periapsis
145.4257°
True anomaly
214.65037°
Mean anomaly
228.1056°
Eccentric anomaly
221.17643°
Mean motion
2.65287 °/min
Orbital period
135.7 mins
BSTAR
0.0069045
Loading maneuver chart data...
Computing Atmospheric mass density...
Loading historical data...
Loading historical data...
Loading historical data...
Loading historical data...
Loading historical data...
Loading historical data...
Loading historical data...

Documentation

Showing up to 5 results
|